Regional Weather Roundup
Issued by NWS Grand Forks, ND

Home | Current Version | Previous Version | Text Only | Print | Product List | Glossary On
Versions: 1 2 3 4 5 6 7 8 9 10 11 12 13 14 15 16 17 18 19 20 21 22 23 24 25 26 27 28 29 30 31 32 33 34 35 36 37 38 39 40 41 42 43 44 45 46 47 48 49 50
000
ASUS43 KFGF 310631
RWRFGF
PRAIRIE TO PINES  WEATHER ROUNDUP
NATIONAL WEATHER SERVICE EASTERN NORTH DAKOTA/GRAND FORKS ND
100 AM CDT THU JUL 31 2014

 **SATELLITE DATA USED TO AUGMENT SKY COVER AT AUTOMATED STATIONS**
 *****  WEATHER ACROSS EASTERN NORTH DAKOTA  *****

CITY           SKY/WX    TMP DP  RH WIND       PRES   REMARKS
GRAND FORKS    CLEAR     61  57  87 W6        30.04S
6HR MIN TEMP:  60; 6HR MAX TEMP:  79;

GRAND FRKS AFB CLEAR     60  60  99 W3        30.05S
GRAND FRKS NWS   N/A     61 N/A N/A MISG        N/A
DEVILS LAKE    CLEAR     64  59  82 CALM      30.07S
6HR MIN TEMP:  63; 6HR MAX TEMP:  79;

FARGO          MOCLDY    61  54  77 CALM      30.05R
WAHPETON ARPT  CLEAR     57  52  82 W3        30.06S
$$

 ***** WEATHER ACROSS CENTRAL AND WESTERN NORTH DAKOTA  *****

CITY           SKY/WX    TMP DP  RH WIND       PRES   REMARKS
BISMARCK       MOCLDY    63  58  83 CALM      30.11S
6HR MIN TEMP:  63; 6HR MAX TEMP:  80;

MINOT          CLEAR     62  56  80 SW5       30.10R
6HR MIN TEMP:  62; 6HR MAX TEMP:  77;

JAMESTOWN      PTCLDY    62  55  77 CALM      30.09S
6HR MIN TEMP:  60; 6HR MAX TEMP:  78;

MINOT AFB      CLEAR     56  56  99 W8        30.09S
GARRISON         N/A     59  57  93 NW5       30.12R
WILLISTON      MOCLDY    69  53  56 NE8       30.16R
6HR MIN TEMP:  66; 6HR MAX TEMP:  84;

DICKINSON      PTCLDY    58  53  84 S5        30.13F
6HR MIN TEMP:  57; 6HR MAX TEMP:  82;

HETTINGER      CLEAR     54  51  90 CALM      30.15F
6HR MIN TEMP:  53; 6HR MAX TEMP:  81;

$$

 *****  OTHER AIRPORT OBSERVATIONS IN OUR AREA  *****

CITY           SKY/WX    TMP DP  RH WIND       PRES   REMARKS
WALHALLA         N/A     64  63  94 CALM        N/A
GRAFTON AIRPOR FAIR      61  59  94 W7        30.03F
VALLEY CITY AR FAIR      59  59 100 CALM      30.09S
CANDO          FAIR      57  55  94 NW3       30.09S
CAVALIER APRT  FAIR      63  57  82 W9        30.03F
GWINNER        CLEAR     59  55  88 W7        30.09F
ROLLA          FAIR      57  57 100 W3        30.10F
 ***** THE ABOVE OBSERVATIONS ARE NON NWS ARE NOT QUALITY
       CONTROLLED AND MAY MIS-REPORT RAIN FOR SNOW...
$$

  *****  WEATHER ACROSS NORTHERN MINNESOTA  *****

CITY           SKY/WX    TMP DP  RH WIND       PRES   REMARKS
FLAG ISLAND    CLEAR     68  61  77 NW6       30.00R
WARROAD        CLEAR     63  59  88 W3        30.02S
ROSEAU         CLEAR     64  57  77 W6        30.02S
HALLOCK        CLEAR     64  57  77 CALM      30.02S
THF RVR FALLS  CLEAR     63  57  82 CALM      30.04S
6HR MIN TEMP:  63; 6HR MAX TEMP:  75;

BAUDETTE       CLEAR     65  58  78 NW5       30.02R
6HR MIN TEMP:  65; 6HR MAX TEMP:  76;

WASKISH        CLEAR     66  61  82 W8        30.01F
CROOKSTON      CLEAR     61  59  94 CALM      30.05S
$$
  *****  WEATHER ACROSS CENTRAL AND WEST MINNESOTA  *****

CITY           SKY/WX    TMP DP  RH WIND       PRES   REMARKS
FOSSTON        CLEAR     54  48  82 CALM      30.06S
BEMIDJI        CLEAR     58  54  85 W6        30.04F
PARK RAPIDS    CLEAR     55  53  93 NW3       30.06S
6HR MIN TEMP:  55; 6HR MAX TEMP:  75;

ELBOW LAKE     FAIR      59  57  93 CALM      30.07S
6HR MIN TEMP:  58; 6HR MAX TEMP:  75;

WADENA         CLEAR     54  52  94 CALM      30.07S
DETROIT LAKES  CLEAR     61  59  94 CALM      30.08S
MOORHEAD       CLEAR     63  63 100 CALM      30.06F
FERGUS FALLS   PTCLDY    63  55  77 CALM      30.06F
MORRIS MN      CLEAR     57  55  94 W3        30.07S
STAPLES        CLEAR     55  54  94 W3        30.06S
$$
  *****  WEATHER ELSEWHERE ACROSS MINNESOTA  *****

CITY           SKY/WX    TMP DP  RH WIND       PRES   REMARKS
DULUTH         PTCLDY    64  56  75 NW3       30.00S
6HR MIN TEMP:  63; 6HR MAX TEMP:  75;

INTRNTL FALLS  MOCLDY    55  54  96 CALM      30.00R
6HR MIN TEMP:  55; 6HR MAX TEMP:  74; 6HR PCP: TRACE;

ELY            CLEAR     54  52  94 CALM      30.00S
CLOQUET        CLEAR     63  55  77 W7        30.01S
WHEATON        CLEAR     61  55  82 SW3       30.09S
BRAINERD       CLEAR     56  55  97 CALM      30.05S
6HR MIN TEMP:  56; 6HR MAX TEMP:  75;

HIBBING        MOCLDY    63  56  78 NW5       30.02R
6HR MIN TEMP:  63; 6HR MAX TEMP:  76;

ALEXANDRIA     CLEAR     61  58  90 SW5       30.09S
6HR MIN TEMP:  61; 6HR MAX TEMP:  76;

SAINT CLOUD    CLEAR     62  54  74 CALM      30.05R
6HR MIN TEMP:  62; 6HR MAX TEMP:  80;

MINNEAPOLIS    CLEAR     68  59  73 W5        30.04S
6HR MIN TEMP:  68; 6HR MAX TEMP:  79;

$$

  *****  WEATHER ACROSS SOUTH DAKOTA  *****

CITY           SKY/WX    TMP DP  RH WIND       PRES   REMARKS
SIOUX FALLS    CLEAR     60  55  83 CALM      30.10F
6HR MIN TEMP:  58; 6HR MAX TEMP:  77;

BROOKINGS      NOT AVBL
WATERTOWN      CLEAR     59  54  83 CALM      30.11S
6HR MIN TEMP:  58; 6HR MAX TEMP:  76;

HURON          CLEAR     63  56  78 CALM      30.09R
6HR MIN TEMP:  63; 6HR MAX TEMP:  80;

SISSETON         N/A     57  55  93 CALM      30.07S
ABERDEEN       CLOUDY    61  56  83 CALM      30.09S
6HR MIN TEMP:  57; 6HR MAX TEMP:  77;

MITCHELL       CLEAR     69  56  62 S8        30.10S
PIERRE         CLEAR     67  56  67 E10       30.07S
6HR MIN TEMP:  66; 6HR MAX TEMP:  85;

MOBRIDGE       PTCLDY    64  55  72 E7        30.08S
RAPID CITY     PTCLDY    63  50  62 NW10      30.18S
6HR MIN TEMP:  63; 6HR MAX TEMP:  82;

$$

  *****  SOME WEATHER IN NEARBY STATES *****

CITY           SKY/WX    TMP DP  RH WIND       PRES   REMARKS
GLASGOW MT     PTCLDY    69  49  48 E12       30.05S
6HR MIN TEMP:  69; 6HR MAX TEMP:  92;

GREAT FALLS MT PTCLDY    71  43  36 W5        30.12S
6HR MIN TEMP:  66; 6HR MAX TEMP:  92;

CHEYENNE WY    CLOUDY    58  52  80 W6        30.35F
6HR MIN TEMP:  57; 6HR MAX TEMP:  60;

SCOTTSBLUFF NE MOCLDY    63  59  87 CALM      30.23S
6HR MIN TEMP:  62; 6HR MAX TEMP:  77;

OMAHA NE       CLEAR     63  58  83 CALM      30.12R
6HR MIN TEMP:  63; 6HR MAX TEMP:  80;

DES MOINES IA  CLEAR     67  56  67 CALM      30.09S
6HR MIN TEMP:  67; 6HR MAX TEMP:  79;

DAVENPORT IA   CLEAR     58  57  97 CALM      30.07S
6HR MIN TEMP:  58; 6HR MAX TEMP:  75;

CHICAGO IL     CLEAR     62  55  77 S5        30.04R
6HR MIN TEMP:  62; 6HR MAX TEMP:  73;

EAU CLAIRE WI  CLEAR     61  59  93 SW5       30.01S
6HR MIN TEMP:  61; 6HR MAX TEMP:  76; 6HR PCP:  0.26;

LA CROSSE WI   CLEAR     66  61  84 CALM      30.02S
6HR MIN TEMP:  66; 6HR MAX TEMP:  77;

$$

  *****  SOME NATIONAL WEATHER *****

CITY           SKY/WX    TMP DP  RH WIND       PRES   REMARKS
LA GUARDIA NY  PTCLDY    72  57  59 S5        30.04S
6HR MIN TEMP:  72; 6HR MAX TEMP:  75;

RALEIGH NC     CLOUDY    70  64  81 S3        30.09S
6HR MIN TEMP:  68; 6HR MAX TEMP:  73;

ATLANTA GA     MOCLDY    72  59  63 N5        30.05F
6HR MIN TEMP:  72; 6HR MAX TEMP:  82;

NEW ORLEANS LA CLEAR     76  61  59 E5        30.01F
6HR MIN TEMP:  75; 6HR MAX TEMP:  84;

OKLAHOMA CITY  LGT RAIN  70  66  88 NE12      30.05S FOG
6HR MIN TEMP:  69; 6HR MAX TEMP:  72; 6HR PCP:  0.51;

ALBUQUERQUE NM TSTM      68  60  75 E24       30.24R
6HR MIN TEMP:  68; 6HR MAX TEMP:  89; 6HR PCP:  0.07;

SALT LAKE CITY PTCLDY    69  54  58 CALM      30.18R
6HR MIN TEMP:  69; 6HR MAX TEMP:  81;

LOS ANGELES CA CLEAR     69  63  81 CALM      29.94R
6HR MIN TEMP:  69; 6HR MAX TEMP:  75;

BOISE ID       PTCLDY    79  46  31 S6G17     30.09R


USA.gov is the U.S. government's official web portal to all federal, state and local government web resources and services.